Location: Dallas
(32.7833°N, 96.8000°W)
Time: 01:23:01
(UTC-06:00)

Envisat - Pass Details

Date: 24 January 2021
Orbit: 764 x 766 km, 98.1° (Epoch: 04 March)

Event Time Altitude Azimuth Distance (km) Brightness Sun altitude
Rises 05:55:07 0° 15° (NNE) 3,235 6.3 -19.2°
Reaches altitude 10° 05:57:28 10° 19° (NNE) 2,305 5.6 -18.8°
Maximum altitude 06:02:30 65° 101° (E) 836 3.4 -17.7°
Drops below altitude 10° 06:07:31 10° 183° (S) 2,290 5.6 -16.7°
Sets 06:09:49 0° 186° (S) 3,212 6.3 -16.2°
